sat.trackr.live / text

‹ back to catalog

STARLINK-34096

NORAD 64043 · 2025-102X

PAYLOAD ACTIVE UNKNOWN

§ Identity

Operator
Country
US
Launch date
2025-05-16
Launch site
AFWTR
Launch vehicle
Mass (kg)
RCS (m²)

Purposes: comms

External: N2YO · Heavens-Above · Gunter

§ Orbital elements

Epoch: 2026-05-25T02:02:48.649920Z

Period
96.11 min
Inclination
70.0006°
Eccentricity
0.0003076
Mean motion
14.98327047 rev/d
Perigee alt
569.9 km
Apogee alt
574.2 km
Semi-major
6,950.2 km
B*
3.2507e-4
RAAN
281.9045°
Arg perigee
273.3496°
Mean anomaly
86.7311°
Rev number
5,728

§ Raw data

STARLINK-340961 64043U 25102X   26145.08528530  .00003787  00000+0  32507-3 0  99902 64043  70.0006 281.9045 0003076 273.3496  86.7311 14.98327047 57284

JSON: /api/v1/satellites/64043 · /tle

For live sub-satellite position, see the globe view (requires WebGL).

§ Visibility from observer

Set your observer location to see the next 7 days of passes ≥ 10°. The values pass through the URL so the page stays shareable.

No JS? Fill the form by hand. The geolocation button needs JavaScript.